Time,TemperatureF,DewpointF,PressureIn,WindDirection,WindDirectionDegrees,WindSpeedMPH,WindSpeedGustMPH,Humidity,HourlyPrecipIn,Conditions,Clouds,dailyrainin,SoftwareType,DateUTC
2013-01-30 00:05:00,45.6,42.3,30.35,NE,34,2.0,3.0,88,0.00,,,0.00,Wunderground v.1.15,2013-01-29 23:05:00,
2013-01-30 00:10:00,45.5,42.2,30.35,NE,34,3.0,3.0,88,0.00,,,0.00,Wunderground v.1.15,2013-01-29 23:10:00,
2013-01-30 00:20:00,45.3,42.0,30.35,NE,34,3.0,3.0,88,0.00,,,0.00,Wunderground v.1.15,2013-01-29 23:20:00,
2013-01-30 00:25:00,45.5,42.4,30.35,NE,34,2.0,2.0,89,0.00,,,0.00,Wunderground v.1.15,2013-01-29 23:25:00,
2013-01-30 00:30:00,45.3,42.0,30.35,NE,34,2.0,2.0,88,0.00,,,0.00,Wunderground v.1.15,2013-01-29 23:30:00,
2013-01-30 00:40:00,45.1,42.1,30.35,NE,34,3.0,3.0,89,0.00,,,0.00,Wunderground v.1.15,2013-01-29 23:40:00,
2013-01-30 00:45:00,45.1,42.1,30.35,NE,34,3.0,4.0,89,0.00,,,0.00,Wunderground v.1.15,2013-01-29 23:45:00,
2013-01-30 00:55:00,45.0,41.7,30.35,NE,34,3.0,4.0,88,0.00,,,0.00,Wunderground v.1.15,2013-01-29 23:55:00,
2013-01-30 01:05:00,44.3,41.0,30.35,NE,34,3.0,3.0,88,0.00,,,0.00,Wunderground v.1.15,2013-01-30 00:05:00,
2013-01-30 01:10:00,44.3,41.0,30.35,NE,34,2.0,4.0,88,0.00,,,0.00,Wunderground v.1.15,2013-01-30 00:10:00,
2013-01-30 01:15:00,44.3,41.0,30.35,NE,34,3.0,3.0,88,0.00,,,0.00,Wunderground v.1.15,2013-01-30 00:15:00,
2013-01-30 01:25:00,44.2,40.9,30.34,NE,34,3.0,3.0,88,0.00,,,0.00,Wunderground v.1.15,2013-01-30 00:25:00,
2013-01-30 01:30:00,44.0,40.7,30.34,NNE,13,3.0,5.0,88,0.00,,,0.00,Wunderground v.1.15,2013-01-30 00:30:00,
2013-01-30 01:40:00,44.0,40.7,30.34,NNE,12,3.0,4.0,88,0.00,,,0.00,Wunderground v.1.15,2013-01-30 00:40:00,
2013-01-30 01:45:00,44.0,40.7,30.34,NNE,12,3.0,4.0,88,0.00,,,0.00,Wunderground v.1.15,2013-01-30 00:45:00,
2013-01-30 01:50:00,43.8,40.5,30.34,NNE,24,4.0,5.0,88,0.00,,,0.00,Wunderground v.1.15,2013-01-30 00:50:00,
2013-01-30 02:04:00,43.6,40.6,30.34,NNE,33,4.0,5.0,89,0.00,,,0.00,Wunderground v.1.15,2013-01-30 01:04:00,
2013-01-30 02:10:00,43.9,40.9,30.34,NNE,33,4.0,5.0,89,0.00,,,0.00,Wunderground v.1.15,2013-01-30 01:10:00,
2013-01-30 02:15:00,44.2,41.5,30.34,NNE,33,3.0,3.0,90,0.00,,,0.00,Wunderground v.1.15,2013-01-30 01:15:00,
2013-01-30 02:25:00,44.4,41.7,30.33,NNE,33,2.0,2.0,90,0.00,,,0.00,Wunderground v.1.15,2013-01-30 01:25:00,
2013-01-30 02:30:00,44.4,41.4,30.33,NNE,33,2.0,3.0,89,0.00,,,0.00,Wunderground v.1.15,2013-01-30 01:30:00,
2013-01-30 02:40:00,44.0,41.3,30.33,NNE,33,2.0,2.0,90,0.00,,,0.00,Wunderground v.1.15,2013-01-30 01:40:00,
2013-01-30 02:45:00,43.5,40.8,30.33,NNE,33,2.0,2.0,90,0.00,,,0.00,Wunderground v.1.15,2013-01-30 01:45:00,
2013-01-30 02:54:00,42.3,39.6,30.33,NNE,33,3.0,4.0,90,0.00,,,0.00,Wunderground v.1.15,2013-01-30 01:54:00,
2013-01-30 03:00:00,41.8,39.1,30.32,NNE,33,4.0,4.0,90,0.00,,,0.00,Wunderground v.1.15,2013-01-30 02:00:00,
2013-01-30 03:10:00,42.0,39.8,30.32,NNE,33,3.0,3.0,92,0.00,,,0.00,Wunderground v.1.15,2013-01-30 02:10:00,
2013-01-30 03:20:00,42.0,39.8,30.32,NNE,32,3.0,4.0,92,0.00,,,0.00,Wunderground v.1.15,2013-01-30 02:20:00,
2013-01-30 03:34:00,42.3,40.1,30.32,NNE,33,3.0,4.0,92,0.00,,,0.00,Wunderground v.1.15,2013-01-30 02:34:00,
2013-01-30 03:39:00,42.7,40.8,30.32,NNE,33,3.0,4.0,93,0.00,,,0.00,Wunderground v.1.15,2013-01-30 02:39:00,
2013-01-30 03:45:00,42.8,40.9,30.32,NNE,33,3.0,3.0,93,0.00,,,0.00,Wunderground v.1.15,2013-01-30 02:45:00,
2013-01-30 03:54:00,42.4,40.2,30.32,NNE,32,2.0,2.0,92,0.00,,,0.00,Wunderground v.1.15,2013-01-30 02:54:00,
2013-01-30 04:04:00,42.3,40.4,30.32,NNE,32,3.0,3.0,93,0.00,,,0.00,Wunderground v.1.15,2013-01-30 03:04:00,
2013-01-30 04:09:00,42.0,39.8,30.32,NNE,33,3.0,3.0,92,0.00,,,0.00,Wunderground v.1.15,2013-01-30 03:09:00,
2013-01-30 04:15:00,41.8,39.9,30.32,NNE,33,3.0,3.0,93,0.00,,,0.00,Wunderground v.1.15,2013-01-30 03:15:00,
2013-01-30 04:24:00,42.0,40.1,30.31,NNE,32,3.0,3.0,93,0.00,,,0.00,Wunderground v.1.15,2013-01-30 03:24:00,
2013-01-30 04:34:00,42.4,40.5,30.31,NNE,33,2.0,2.0,93,0.00,,,0.00,Wunderground v.1.15,2013-01-30 03:34:00,
2013-01-30 04:39:00,42.6,40.7,30.31,NNE,33,2.0,4.0,93,0.00,,,0.00,Wunderground v.1.15,2013-01-30 03:39:00,
2013-01-30 04:45:00,42.4,40.5,30.31,NNE,33,2.0,2.0,93,0.00,,,0.00,Wunderground v.1.15,2013-01-30 03:45:00,
2013-01-30 04:55:00,41.9,39.7,30.31,NNE,33,2.0,3.0,92,0.00,,,0.00,Wunderground v.1.15,2013-01-30 03:55:00,
2013-01-30 05:05:00,41.8,39.9,30.31,NNE,33,3.0,3.0,93,0.00,,,0.00,Wunderground v.1.15,2013-01-30 04:05:00,
2013-01-30 05:10:00,41.6,39.7,30.31,NNE,33,3.0,3.0,93,0.00,,,0.00,Wunderground v.1.15,2013-01-30 04:10:00,
2013-01-30 05:15:00,42.0,40.1,30.30,NNE,33,3.0,3.0,93,0.00,,,0.00,Wunderground v.1.15,2013-01-30 04:15:00,
2013-01-30 05:25:00,42.6,40.7,30.31,NNE,33,1.0,3.0,93,0.00,,,0.00,Wunderground v.1.15,2013-01-30 04:25:00,
2013-01-30 05:35:00,42.7,40.8,30.31,NNE,33,2.0,2.0,93,0.00,,,0.00,Wunderground v.1.15,2013-01-30 04:35:00,
2013-01-30 05:40:00,42.5,40.6,30.31,NNE,32,1.0,2.0,93,0.00,,,0.00,Wunderground v.1.15,2013-01-30 04:40:00,
2013-01-30 05:50:00,42.2,40.3,30.31,NNE,33,2.0,2.0,93,0.00,,,0.00,Wunderground v.1.15,2013-01-30 04:50:00,
2013-01-30 05:55:00,42.1,40.2,30.31,NNE,33,2.0,2.0,93,0.00,,,0.00,Wunderground v.1.15,2013-01-30 04:55:00,
2013-01-30 06:00:00,42.1,39.9,30.31,NNE,33,3.0,4.0,92,0.00,,,0.00,Wunderground v.1.15,2013-01-30 05:00:00,
2013-01-30 06:05:00,41.8,39.6,30.31,NNE,33,3.0,4.0,92,0.00,,,0.00,Wunderground v.1.15,2013-01-30 05:05:00,
2013-01-30 06:10:00,42.4,40.8,30.31,NNE,32,3.0,3.0,94,0.00,,,0.00,Wunderground v.1.15,2013-01-30 05:10:00,
2013-01-30 06:15:00,42.4,40.5,30.31,NNE,33,3.0,3.0,93,0.00,,,0.00,Wunderground v.1.15,2013-01-30 05:15:00,
2013-01-30 06:25:00,42.4,40.5,30.31,NNE,33,3.0,3.0,93,0.00,,,0.00,Wunderground v.1.15,2013-01-30 05:25:00,
2013-01-30 06:30:00,42.8,41.2,30.31,NNE,32,2.0,2.0,94,0.00,,,0.00,Wunderground v.1.15,2013-01-30 05:30:00,
2013-01-30 06:40:00,43.0,41.1,30.31,NNE,33,1.0,2.0,93,0.00,,,0.00,Wunderground v.1.15,2013-01-30 05:40:00,
2013-01-30 06:45:00,42.8,40.9,30.32,NNE,33,1.0,1.0,93,0.00,,,0.00,Wunderground v.1.15,2013-01-30 05:45:00,
2013-01-30 06:55:00,42.9,41.3,30.32,NNE,33,1.0,1.0,94,0.00,,,0.00,Wunderground v.1.15,2013-01-30 05:55:00,
2013-01-30 07:00:00,42.6,40.7,30.31,NNE,33,1.0,3.0,93,0.00,,,0.00,Wunderground v.1.15,2013-01-30 06:00:00,
2013-01-30 07:10:00,42.0,40.1,30.32,NNE,33,2.0,2.0,93,0.00,,,0.00,Wunderground v.1.15,2013-01-30 06:10:00,
2013-01-30 07:20:00,42.2,40.6,30.32,NNE,33,1.0,1.0,94,0.00,,,0.00,Wunderground v.1.15,2013-01-30 06:20:00,
2013-01-30 07:25:00,42.8,41.5,30.32,NNE,32,2.0,3.0,95,0.00,,,0.00,Wunderground v.1.15,2013-01-30 06:25:00,
2013-01-30 07:30:00,43.0,41.4,30.32,NNE,33,2.0,2.0,94,0.00,,,0.01,Wunderground v.1.15,2013-01-30 06:30:00,
2013-01-30 07:40:00,42.0,40.1,30.32,NNE,33,1.0,4.0,93,0.00,,,0.01,Wunderground v.1.15,2013-01-30 06:40:00,
2013-01-30 07:49:00,40.8,38.9,30.32,NNE,33,3.0,3.0,93,0.00,,,0.01,Wunderground v.1.15,2013-01-30 06:49:00,
2013-01-30 07:55:00,40.6,39.0,30.32,NNE,33,3.0,3.0,94,0.00,,,0.01,Wunderground v.1.15,2013-01-30 06:55:00,
2013-01-30 08:00:00,40.5,38.9,30.32,NNE,32,2.0,4.0,94,0.00,,,0.01,Wunderground v.1.15,2013-01-30 07:00:00,
2013-01-30 08:10:00,40.4,38.8,30.32,NNE,32,3.0,3.0,94,0.00,,,0.01,Wunderground v.1.15,2013-01-30 07:10:00,
2013-01-30 08:15:00,40.4,38.8,30.32,NNE,32,2.0,3.0,94,0.00,,,0.01,Wunderground v.1.15,2013-01-30 07:15:00,
2013-01-30 08:20:00,40.3,38.4,30.32,NNE,33,3.0,4.0,93,0.00,,,0.01,Wunderground v.1.15,2013-01-30 07:20:00,
2013-01-30 08:34:00,40.9,39.0,30.32,NNE,33,4.0,4.0,93,0.00,,,0.01,Wunderground v.1.15,2013-01-30 07:34:00,
2013-01-30 08:39:00,41.0,39.4,30.33,NNE,33,3.0,4.0,94,0.00,,,0.01,Wunderground v.1.15,2013-01-30 07:39:00,
2013-01-30 08:45:00,41.4,39.8,30.32,NNE,33,2.0,3.0,94,0.00,,,0.01,Wunderground v.1.15,2013-01-30 07:45:00,
2013-01-30 08:54:00,41.6,40.0,30.32,NNE,33,2.0,5.0,94,0.00,,,0.01,Wunderground v.1.15,2013-01-30 07:54:00,
2013-01-30 09:00:00,41.5,39.9,30.32,NNE,32,3.0,3.0,94,0.00,,,0.01,Wunderground v.1.15,2013-01-30 08:00:00,
2013-01-30 09:09:00,42.3,40.7,30.33,NNE,33,2.0,3.0,94,0.00,,,0.01,Wunderground v.1.15,2013-01-30 08:09:00,
2013-01-30 09:14:00,42.8,41.5,30.33,NNE,33,1.0,1.0,95,0.00,,,0.01,Wunderground v.1.15,2013-01-30 08:14:00,
2013-01-30 09:24:00,43.8,42.5,30.33,NNE,33,0.0,0.0,95,0.00,,,0.01,Wunderground v.1.15,2013-01-30 08:24:00,
2013-01-30 09:30:00,44.3,43.0,30.33,NNE,33,0.0,0.0,95,0.00,,,0.01,Wunderground v.1.15,2013-01-30 08:30:00,
2013-01-30 09:39:00,45.0,43.4,30.33,NNE,33,0.0,0.0,94,0.00,,,0.01,Wunderground v.1.15,2013-01-30 08:39:00,
2013-01-30 09:44:00,45.8,44.4,30.33,NNE,33,0.0,0.0,95,0.00,,,0.01,Wunderground v.1.15,2013-01-30 08:44:00,
2013-01-30 09:49:00,46.5,45.1,30.33,NNE,33,0.0,0.0,95,0.00,,,0.01,Wunderground v.1.15,2013-01-30 08:49:00,
2013-01-30 10:04:00,48.9,47.5,30.33,NNE,33,0.0,0.0,95,0.00,,,0.01,Wunderground v.1.15,2013-01-30 09:04:00,
2013-01-30 10:09:00,49.7,48.0,30.33,NNE,33,0.0,0.0,94,0.00,,,0.01,Wunderground v.1.15,2013-01-30 09:09:00,
2013-01-30 10:14:00,50.2,48.5,30.33,NNE,33,0.0,1.0,94,0.00,,,0.01,Wunderground v.1.15,2013-01-30 09:14:00,
2013-01-30 10:19:00,50.9,49.2,30.33,NNE,33,0.0,1.0,94,0.00,,,0.01,Wunderground v.1.15,2013-01-30 09:19:00,
2013-01-30 10:29:00,50.9,48.9,30.33,NNE,33,0.0,1.0,93,0.00,,,0.01,Wunderground v.1.15,2013-01-30 09:29:00,
2013-01-30 10:45:00,52.7,50.7,30.33,NNE,32,1.0,1.0,93,0.00,,,0.01,Wunderground v.1.15,2013-01-30 09:45:00,
2013-01-30 10:55:00,54.4,52.4,30.33,NE,53,1.0,1.0,93,0.00,,,0.01,Wunderground v.1.15,2013-01-30 09:55:00,
2013-01-30 11:05:00,55.5,52.9,30.34,SSE,162,4.0,4.0,91,0.00,,,0.01,Wunderground v.1.15,2013-01-30 10:05:00,
2013-01-30 11:10:00,56.2,53.6,30.33,SSE,150,3.0,4.0,91,0.00,,,0.01,Wunderground v.1.15,2013-01-30 10:10:00,
2013-01-30 11:15:00,56.3,53.1,30.34,SSW,209,2.0,4.0,89,0.00,,,0.01,Wunderground v.1.15,2013-01-30 10:15:00,
2013-01-30 11:25:00,56.7,52.6,30.33,SSW,202,4.0,7.0,86,0.00,,,0.01,Wunderground v.1.15,2013-01-30 10:25:00,
2013-01-30 11:30:00,56.9,52.1,30.33,South,178,5.0,7.0,84,0.00,,,0.01,Wunderground v.1.15,2013-01-30 10:30:00,
2013-01-30 11:40:00,57.4,51.3,30.33,West,261,6.0,7.0,80,0.00,,,0.01,Wunderground v.1.15,2013-01-30 10:40:00,
2013-01-30 11:50:00,58.0,50.8,30.33,SW,227,6.0,6.0,77,0.00,,,0.01,Wunderground v.1.15,2013-01-30 10:50:00,
2013-01-30 12:05:00,58.8,50.9,30.33,South,175,5.0,9.0,75,0.00,,,0.01,Wunderground v.1.15,2013-01-30 11:05:00,
2013-01-30 12:10:00,58.9,51.0,30.33,SSW,192,5.0,9.0,75,0.00,,,0.01,Wunderground v.1.15,2013-01-30 11:10:00,
2013-01-30 12:15:00,59.0,50.7,30.33,SW,214,6.0,6.0,74,0.00,,,0.01,Wunderground v.1.15,2013-01-30 11:15:00,
2013-01-30 12:25:00,59.1,51.2,30.32,South,169,7.0,7.0,75,0.00,,,0.01,Wunderground v.1.15,2013-01-30 11:25:00,
2013-01-30 12:35:00,59.0,52.1,30.32,SW,232,8.0,8.0,78,0.00,,,0.01,Wunderground v.1.15,2013-01-30 11:35:00,
2013-01-30 12:40:00,58.8,52.0,30.32,South,175,7.0,8.0,78,0.00,,,0.01,Wunderground v.1.15,2013-01-30 11:40:00,
2013-01-30 12:50:00,58.9,52.4,30.31,SSW,201,7.0,8.0,79,0.00,,,0.01,Wunderground v.1.15,2013-01-30 11:50:00,
2013-01-30 13:00:00,59.0,52.8,30.31,South,186,7.0,10.0,80,0.00,,,0.01,Wunderground v.1.15,2013-01-30 12:00:00,
2013-01-30 13:10:00,58.7,52.2,30.31,South,173,8.0,14.0,79,0.00,,,0.01,Wunderground v.1.15,2013-01-30 12:10:00,
2013-01-30 13:15:00,58.8,52.6,30.30,SSE,160,9.0,14.0,80,0.00,,,0.01,Wunderground v.1.15,2013-01-30 12:15:00,
2013-01-30 13:20:00,58.9,52.7,30.30,SSE,157,9.0,9.0,80,0.00,,,0.01,Wunderground v.1.15,2013-01-30 12:20:00,
2013-01-30 13:30:00,58.8,53.0,30.30,SSE,160,9.0,12.0,81,0.00,,,0.01,Wunderground v.1.15,2013-01-30 12:30:00,
2013-01-30 13:40:00,58.6,52.8,30.30,SSE,153,7.0,13.0,81,0.00,,,0.01,Wunderground v.1.15,2013-01-30 12:40:00,
2013-01-30 13:45:00,58.6,53.1,30.29,SSE,165,7.0,13.0,82,0.00,,,0.01,Wunderground v.1.15,2013-01-30 12:45:00,
2013-01-30 13:55:00,59.0,53.2,30.29,South,173,6.0,7.0,81,0.00,,,0.01,Wunderground v.1.15,2013-01-30 12:55:00,
2013-01-30 14:05:00,58.6,52.8,30.29,South,180,8.0,8.0,81,0.00,,,0.01,Wunderground v.1.15,2013-01-30 13:05:00,
2013-01-30 14:10:00,58.8,53.0,30.29,SSE,149,7.0,8.0,81,0.00,,,0.01,Wunderground v.1.15,2013-01-30 13:10:00,
2013-01-30 14:15:00,58.9,53.1,30.28,SSE,152,5.0,8.0,81,0.00,,,0.01,Wunderground v.1.15,2013-01-30 13:15:00,
2013-01-30 14:25:00,58.9,53.1,30.28,SE,139,4.0,4.0,81,0.00,,,0.01,Wunderground v.1.15,2013-01-30 13:25:00,
2013-01-30 14:30:00,58.9,52.7,30.28,SE,136,6.0,9.0,80,0.00,,,0.01,Wunderground v.1.15,2013-01-30 13:30:00,
2013-01-30 14:40:00,59.0,52.1,30.27,SSE,149,6.0,10.0,78,0.00,,,0.01,Wunderground v.1.15,2013-01-30 13:40:00,
2013-01-30 14:45:00,59.3,52.4,30.27,SE,136,5.0,5.0,78,0.00,,,0.01,Wunderground v.1.15,2013-01-30 13:45:00,
2013-01-30 14:50:00,59.5,51.9,30.27,South,183,4.0,5.0,76,0.00,,,0.01,Wunderground v.1.15,2013-01-30 13:50:00,
2013-01-30 15:00:00,59.2,52.3,30.27,South,173,7.0,7.0,78,0.00,,,0.01,Wunderground v.1.15,2013-01-30 14:00:00,
2013-01-30 15:10:00,59.1,53.3,30.27,SSE,164,5.0,5.0,81,0.00,,,0.01,Wunderground v.1.15,2013-01-30 14:10:00,
2013-01-30 15:15:00,59.2,53.4,30.27,South,181,4.0,6.0,81,0.00,,,0.01,Wunderground v.1.15,2013-01-30 14:15:00,
2013-01-30 15:25:00,59.1,53.6,30.27,South,181,5.0,10.0,82,0.00,,,0.01,Wunderground v.1.15,2013-01-30 14:25:00,
2013-01-30 15:35:00,58.5,53.4,30.27,South,169,8.0,15.0,83,0.00,,,0.01,Wunderground v.1.15,2013-01-30 14:35:00,
2013-01-30 15:40:00,58.1,53.3,30.27,SW,216,8.0,15.0,84,0.00,,,0.01,Wunderground v.1.15,2013-01-30 14:40:00,
2013-01-30 15:50:00,57.9,53.4,30.27,South,191,9.0,13.0,85,0.00,,,0.01,Wunderground v.1.15,2013-01-30 14:50:00,
2013-01-30 15:55:00,57.8,53.6,30.27,South,180,9.0,9.0,86,0.00,,,0.01,Wunderground v.1.15,2013-01-30 14:55:00,
2013-01-30 16:00:00,57.7,53.5,30.27,SSW,204,9.0,9.0,86,0.00,,,0.01,Wunderground v.1.15,2013-01-30 15:00:00,
2013-01-30 16:10:00,57.7,53.9,30.27,SSE,149,8.0,8.0,87,0.00,,,0.01,Wunderground v.1.15,2013-01-30 15:10:00,
2013-01-30 16:15:00,57.7,53.9,30.27,South,184,8.0,8.0,87,0.00,,,0.01,Wunderground v.1.15,2013-01-30 15:15:00,
2013-01-30 16:25:00,57.6,53.8,30.27,SE,146,6.0,11.0,87,0.00,,,0.01,Wunderground v.1.15,2013-01-30 15:25:00,
2013-01-30 16:35:00,57.4,53.6,30.27,SSW,196,8.0,9.0,87,0.00,,,0.01,Wunderground v.1.15,2013-01-30 15:35:00,
2013-01-30 16:40:00,57.4,53.6,30.27,SSE,165,8.0,9.0,87,0.00,,,0.01,Wunderground v.1.15,2013-01-30 15:40:00,
2013-01-30 16:50:00,57.3,53.5,30.27,South,188,7.0,8.0,87,0.00,,,0.01,Wunderground v.1.15,2013-01-30 15:50:00,
2013-01-30 17:00:00,57.1,53.3,30.27,SSW,203,8.0,9.0,87,0.00,,,0.01,Wunderground v.1.15,2013-01-30 16:00:00,
2013-01-30 17:10:00,57.2,53.0,30.28,SW,218,7.0,8.0,86,0.00,,,0.01,Wunderground v.1.15,2013-01-30 16:10:00,
2013-01-30 17:20:00,57.3,52.5,30.28,SW,230,7.0,12.0,84,0.00,,,0.01,Wunderground v.1.15,2013-01-30 16:20:00,
2013-01-30 17:30:00,57.2,52.4,30.28,SSW,195,7.0,8.0,84,0.00,,,0.01,Wunderground v.1.15,2013-01-30 16:30:00,
2013-01-30 17:40:00,57.0,52.2,30.28,SW,223,6.0,7.0,84,0.00,,,0.01,Wunderground v.1.15,2013-01-30 16:40:00,
2013-01-30 17:50:00,56.9,52.1,30.29,SSW,212,7.0,7.0,84,0.00,,,0.01,Wunderground v.1.15,2013-01-30 16:50:00,
2013-01-30 17:55:00,56.8,52.0,30.29,SSW,212,8.0,8.0,84,0.00,,,0.01,Wunderground v.1.15,2013-01-30 16:55:00,
2013-01-30 18:01:00,56.8,52.0,30.29,SW,217,8.0,8.0,84,0.00,,,0.01,Wunderground v.1.15,2013-01-30 17:01:00,
2013-01-30 18:10:00,56.6,51.8,30.29,SSW,201,7.0,8.0,84,0.00,,,0.01,Wunderground v.1.15,2013-01-30 17:10:00,
2013-01-30 18:20:00,56.6,52.1,30.30,SW,234,6.0,6.0,85,0.00,,,0.01,Wunderground v.1.15,2013-01-30 17:20:00,
2013-01-30 18:30:00,56.4,51.6,30.30,South,189,6.0,9.0,84,0.00,,,0.01,Wunderground v.1.15,2013-01-30 17:30:00,
2013-01-30 18:40:00,56.5,51.7,30.30,SSW,202,6.0,8.0,84,0.00,,,0.01,Wunderground v.1.15,2013-01-30 17:40:00,
2013-01-30 18:45:00,56.5,51.7,30.30,South,171,5.0,11.0,84,0.00,,,0.01,Wunderground v.1.15,2013-01-30 17:45:00,
2013-01-30 18:50:00,56.6,51.8,30.30,South,179,6.0,11.0,84,0.00,,,0.01,Wunderground v.1.15,2013-01-30 17:50:00,
2013-01-30 19:00:00,56.5,52.0,30.30,South,178,5.0,5.0,85,0.00,,,0.01,Wunderground v.1.15,2013-01-30 18:00:00,
2013-01-30 19:10:00,56.4,51.9,30.30,SSE,164,5.0,5.0,85,0.00,,,0.01,Wunderground v.1.15,2013-01-30 18:10:00,
2013-01-30 19:15:00,56.5,52.4,30.30,SSE,167,5.0,7.0,86,0.00,,,0.01,Wunderground v.1.15,2013-01-30 18:15:00,
2013-01-30 19:25:00,56.2,52.1,30.31,SSW,192,5.0,10.0,86,0.00,,,0.01,Wunderground v.1.15,2013-01-30 18:25:00,
2013-01-30 19:35:00,56.1,51.7,30.30,South,186,5.0,5.0,85,0.00,,,0.01,Wunderground v.1.15,2013-01-30 18:35:00,
2013-01-30 19:40:00,56.4,51.9,30.30,South,185,4.0,6.0,85,0.00,,,0.01,Wunderground v.1.15,2013-01-30 18:40:00,
2013-01-30 19:45:00,56.4,51.9,30.30,SSW,200,5.0,5.0,85,0.00,,,0.01,Wunderground v.1.15,2013-01-30 18:45:00,
2013-01-30 19:55:00,56.2,51.7,30.30,SSW,200,3.0,3.0,85,0.00,,,0.01,Wunderground v.1.15,2013-01-30 18:55:00,
2013-01-30 20:05:00,56.2,51.7,30.30,SSE,165,4.0,4.0,85,0.00,,,0.01,Wunderground v.1.15,2013-01-30 19:05:00,
2013-01-30 20:10:00,56.2,51.7,30.30,South,183,4.0,6.0,85,0.00,,,0.01,Wunderground v.1.15,2013-01-30 19:10:00,
2013-01-30 20:16:00,56.2,51.7,30.31,SSE,155,3.0,3.0,85,0.00,,,0.01,Wunderground v.1.15,2013-01-30 19:16:00,
2013-01-30 20:25:00,56.2,52.1,30.31,SSE,159,2.0,3.0,86,0.00,,,0.01,Wunderground v.1.15,2013-01-30 19:25:00,
2013-01-30 20:35:00,56.3,52.5,30.31,South,186,3.0,3.0,87,0.00,,,0.01,Wunderground v.1.15,2013-01-30 19:35:00,
2013-01-30 20:40:00,56.2,52.4,30.31,SSW,202,4.0,4.0,87,0.00,,,0.01,Wunderground v.1.15,2013-01-30 19:40:00,
2013-01-30 20:50:00,56.2,52.7,30.31,SSW,202,2.0,3.0,88,0.00,,,0.01,Wunderground v.1.15,2013-01-30 19:50:00,
2013-01-30 21:01:00,56.3,53.1,30.31,SSW,192,3.0,3.0,89,0.00,,,0.01,Wunderground v.1.15,2013-01-30 20:01:00,
2013-01-30 21:10:00,56.3,53.4,30.31,SSW,196,4.0,4.0,90,0.00,,,0.01,Wunderground v.1.15,2013-01-30 20:10:00,
2013-01-30 21:20:00,56.1,53.2,30.32,South,180,3.0,3.0,90,0.00,,,0.01,Wunderground v.1.15,2013-01-30 20:20:00,
2013-01-30 21:35:00,55.9,53.3,30.32,South,180,2.0,2.0,91,0.00,,,0.01,Wunderground v.1.15,2013-01-30 20:35:00,
2013-01-30 21:45:00,55.7,53.1,30.32,South,180,2.0,2.0,91,0.00,,,0.01,Wunderground v.1.15,2013-01-30 20:45:00,
2013-01-30 21:55:00,55.4,52.8,30.32,South,180,0.0,0.0,91,0.00,,,0.01,Wunderground v.1.15,2013-01-30 20:55:00,
2013-01-30 22:00:00,54.3,51.4,30.32,ENE,67,1.0,1.0,90,0.00,,,0.01,Wunderground v.1.15,2013-01-30 21:00:00,
2013-01-30 22:10:00,51.8,49.0,30.32,ENE,60,2.0,2.0,90,0.00,,,0.01,Wunderground v.1.15,2013-01-30 21:10:00,
2013-01-30 22:25:00,50.6,48.1,30.33,NNE,32,1.0,3.0,91,0.00,,,0.01,Wunderground v.1.15,2013-01-30 21:25:00,
2013-01-30 22:35:00,49.9,47.4,30.33,NNE,32,2.0,2.0,91,0.00,,,0.01,Wunderground v.1.15,2013-01-30 21:35:00,
2013-01-30 22:40:00,49.9,47.7,30.33,NNE,32,1.0,2.0,92,0.00,,,0.01,Wunderground v.1.15,2013-01-30 21:40:00,
2013-01-30 22:45:00,49.8,47.3,30.33,NNE,32,2.0,2.0,91,0.00,,,0.01,Wunderground v.1.15,2013-01-30 21:45:00,
2013-01-30 22:50:00,49.9,47.7,30.33,NNE,32,1.0,2.0,92,0.00,,,0.01,Wunderground v.1.15,2013-01-30 21:50:00,
2013-01-30 23:00:00,49.7,47.5,30.33,NNE,32,2.0,2.0,92,0.00,,,0.01,Wunderground v.1.15,2013-01-30 22:00:00,
2013-01-30 23:15:00,49.2,47.0,30.33,NNE,32,1.0,1.0,92,0.00,,,0.01,Wunderground v.1.15,2013-01-30 22:15:00,
2013-01-30 23:25:00,49.3,47.1,30.33,NNE,32,1.0,2.0,92,0.00,,,0.01,Wunderground v.1.15,2013-01-30 22:25:00,
2013-01-30 23:30:00,49.0,46.8,30.33,NNE,32,1.0,3.0,92,0.00,,,0.01,Wunderground v.1.15,2013-01-30 22:30:00,
2013-01-30 23:40:00,48.7,46.5,30.33,NNE,32,2.0,3.0,92,0.00,,,0.01,Wunderground v.1.15,2013-01-30 22:40:00,
2013-01-30 23:50:00,47.9,45.7,30.34,NNE,28,3.0,3.0,92,0.00,,,0.01,Wunderground v.1.15,2013-01-30 22:50:00,